Wind_Speed
7 7 7 6 9 14 11 6 5 5 7 8 7 4 5 5 3 2 2 2 5 6 7 7 5 7 8 8 9 9 8 9 9 10 12 11 11 10 10 10 9 9 8 7 7 6 5 5 5 5 5 5 4 4 4 4 4 4 4 4 3 3 2 2 1 1 1 1 1 1 2 3 3 3 4 4 5 6 7 7 8 8 8 9 9
5 5 6 6 9 12 10 9 8 6 6 7 7 6 4 4 4 1 4 4 6 7 5 7 6 6 7 8 10 10 9 9 9 10 11 12 11 10 10 9 9 9 8 8 7 7 6 5 5 5 4 4 4 3 3 3 3 3 3 3 2 2 2 1 1 0 0 1 1 1 2 3 3 3 4 5 5 6 7 7 8 8 9 9 9
5 4 6 8 8 9 8 9 9 7 7 6 4 4 4 3 3 0 3 4 7 8 6 7 7 7 7 8 9 9 9 9 8 8 10 12 11 10 10 10 9 9 9 8 8 7 7 5 5 5 5 4 4 3 3 3 3 3 2 3 2 2 2 1 1 1 1 1 2 2 2 3 3 4 4 5 6 6 7 7 8 8 9 9 9
4 1 6 12 9 7 7 7 7 6 6 5 2 2 3 3 3 1 0 3 6 7 6 7 7 7 6 8 9 7 8 9 8 8 9 11 12 11 10 10 10 9 9 8 8 7 7 6 6 6 5 5 5 4 4 4 4 4 3 3 3 3 3 2 2 2 2 3 2 3 3 3 4 4 5 5 6 7 7 8 8 8 8 9 9
3 1 6 11 8 6 7 6 7 6 4 4 3 3 2 2 2 1 1 4 6 7 7 7 8 8 6 7 9 8 8 8 7 8 8 9 11 10 10 10 10 9 8 8 8 8 7 6 6 6 6 6 5 5 4 4 4 4 4 4 4 4 4 4 4 3 4 4 4 4 4 4 5 5 6 7 7 7 7 7 7 8 8 9 9
3 2 4 7 6 4 6 5 5 5 3 2 3 4 3 2 4 4 3 5 7 7 7 7 7 8 6 5 7 7 7 7 6 7 7 8 8 9 10 10 9 9 8 7 7 7 7 6 7 6 6 6 6 5 5 4 5 4 4 4 4 5 4 5 5 5 5 5 5 5 5 5 6 6 7 7 8 7 7 7 8 7 8 8 8
4 3 2 4 5 5 6 5 3 3 3 1 3 5 4 4 5 5 5 6 7 6 6 7 6 7 6 5 6 5 6 6 6 6 6 7 7 6 8 8 9 9 8 7 6 6 6 5 6 6 6 6 6 6 5 5 4 4 4 4 4 4 5 5 5 5 5 5 6 6 6 6 7 7 7 7 7 7 7 7 8 8 8 8 8
4 3 1 2 4 4 6 5 2 2 3 3 5 4 4 6 6 4 5 5 6 6 6 7 6 6 6 5 6 5 6 5 5 6 5 6 6 6 6 6 7 7 6 7 7 5 3 4 5 5 5 5 6 6 5 5 5 4 5 5 5 5 5 5 5 5 5 5 6 6 6 6 7 7 7 7 7 8 7 7 7 7 7 7 8
5 4 3 1 2 3 5 5 3 2 2 4 5 4 4 6 6 5 3 2 5 7 6 6 6 6 6 6 6 5 5 5 4 5 4 4 5 5 5 5 5 5 6 8 8 3 2 2 3 4 5 5 5 5 5 5 5 5 5 5 5 5 5 4 5 5 5 5 5 6 6 6 6 6 6 7 7 7 7 7 7 7 6 7 8
5 5 3 2 1 3 5 4 2 1 2 3 5 6 7 7 6 4 3 3 5 5 5 6 5 6 7 6 5 4 4 4 4 4 4 4 4 4 5 5 4 4 5 6 6 3 2 2 2 2 3 4 5 5 5 5 5 5 5 5 5 5 5 5 4 4 4 5 5 5 6 6 6 6 7 7 7 7 7 7 7 6 6 6 7
5 5 4 2 3 3 4 3 2 1 2 3 5 7 6 5 6 4 4 4 4 5 5 5 5 6 6 6 4 3 3 3 3 3 3 4 4 4 4 4 3 4 4 4 5 4 4 2 2 4 3 2 3 4 5 5 5 5 5 5 5 5 5 4 5 4 5 5 5 5 5 6 6 6 6 6 7 7 7 7 6 5 5 6 6
6 5 4 3 4 4 4 4 4 2 2 4 6 7 4 3 5 4 4 4 4 4 4 3 5 5 5 5 4 3 3 2 3 3 2 3 3 3 4 4 3 3 3 3 3 4 4 3 3 5 4 2 2 2 4 4 5 5 5 5 5 5 5 5 5 5 5 5 5 5 6 6 6 6 6 6 7 6 6 6 6 5 5 5 4
6 6 5 5 4 4 4 4 4 3 4 4 6 5 3 3 4 4 4 3 3 4 5 4 4 4 3 4 5 4 3 2 2 2 2 3 4 3 3 4 3 3 4 3 2 3 3 3 3 4 4 2 2 2 3 3 4 4 4 5 5 6 6 5 6 6 6 6 6 6 6 7 6 6 6 6 6 6 6 6 5 5 5 4 4
7 7 6 5 5 3 3 3 3 3 4 4 4 4 3 4 4 4 5 3 3 3 4 2 3 4 3 3 5 5 3 2 2 2 3 3 5 5 3 4 4 3 3 3 2 3 3 3 2 2 2 2 2 3 3 3 3 3 4 5 5 6 6 6 6 6 7 7 6 7 7 7 6 7 7 7 7 7 6 6 6 5 5 4 4
8 7 6 6 5 4 4 3 3 3 2 3 4 4 3 4 4 4 4 3 3 4 3 1 2 6 4 1 3 4 3 2 2 2 3 3 3 5 3 3 4 3 2 2 3 2 2 2 2 1 1 1 2 3 2 3 5 6 6 6 5 6 6 7 7 7 7 7 7 7 8 7 7 7 8 8 7 7 6 6 6 6 5 5 5
8 8 7 6 6 5 4 3 3 3 2 2 3 3 3 3 3 3 3 3 3 4 4 3 3 4 2 0 2 3 2 4 5 2 3 4 4 5 3 2 5 3 2 2 2 2 1 2 2 1 1 1 1 2 3 5 7 7 7 6 6 6 7 7 8 8 8 8 8 9 9 8 8 9 9 8 8 7 7 7 6 6 6 6 6
9 8 7 7 6 6 5 4 3 3 3 2 2 2 2 3 3 3 3 3 3 4 5 4 4 4 2 1 1 2 2 3 5 2 1 3 4 4 2 3 5 3 2 1 2 1 2 3 3 2 2 2 2 2 3 5 5 5 5 5 5 5 6 7 7 8 8 8 9 9 9 9 9 9 9 8 8 8 8 7 7 7 7 7 7
9 9 8 7 7 6 5 5 4 3 3 2 2 2 2 2 3 3 3 4 3 3 4 4 5 3 2 2 0 2 3 2 3 2 2 2 1 4 3 2 4 4 3 2 3 4 3 3 3 3 4 3 3 3 3 4 5 5 7 7 6 5 6 6 7 7 8 8 9 9 9 9 9 9 9 9 8 8 8 8 8 9 9 9 8
10 10 9 8 7 7 6 5 4 4 3 2 2 3 2 2 2 2 3 3 3 2 4 4 4 3 2 3 2 3 3 1 2 2 1 3 1 3 5 3 4 6 5 3 3 3 3 2 3 4 5 4 4 4 4 5 6 7 9 9 8 8 7 7 7 7 8 8 8 9 10 10 10 9 9 9 9 9 10 10 10 10 10 10 10
11 10 10 9 8 7 6 6 5 5 4 3 3 3 1 3 2 1 2 2 2 1 2 3 3 3 2 2 3 3 2 1 3 2 0 1 1 2 3 2 2 3 2 1 0 1 2 2 2 2 4 5 5 5 6 6 7 8 9 8 8 8 8 7 8 8 8 8 8 9 10 10 11 10 10 11 11 11 11 11 11 11 11 11 11
11 11 11 10 9 8 7 7 6 5 5 4 4 3 2 2 2 2 1 1 2 2 2 2 2 3 4 1 1 2 1 1 3 2 1 1 1 2 3 1 2 3 1 1 2 1 2 3 3 3 4 5 6 6 6 6 7 8 9 8 6 7 8 8 8 8 8 9 9 10 10 11 11 12 12 12 12 12 13 13 13 13 13 13 13
12 12 12 11 11 10 8 8 7 7 6 5 4 4 4 4 4 3 3 2 2 3 3 3 2 2 4 3 2 2 1 1 2 2 1 1 2 1 1 0 2 3 1 1 2 2 2 1 3 5 4 4 5 6 6 7 7 8 10 9 7 7 7 8 8 9 9 9 10 11 12 12 13 13 14 14 14 14 14 14 14 14 14 14 14
12 13 13 13 12 11 10 9 8 8 7 6 5 5 5 6 5 5 5 4 4 4 3 4 4 3 3 4 4 3 3 2 2 2 1 1 1 2 1 2 3 2 2 2 1 2 3 3 4 3 3 4 4 5 6 7 8 9 11 12 10 9 9 9 9 10 10 11 11 12 13 14 14 15 15 15 15 16 16 16 16 16 16 16 16
13 13 14 14 14 13 11 10 9 8 8 7 6 5 5 5 6 6 6 5 5 5 4 4 4 4 4 5 5 4 4 3 3 3 3 1 1 4 3 3 2 1 3 1 2 2 3 3 3 3 3 4 4 5 6 7 9 11 13 13 13 12 12 12 12 12 12 12 13 14 15 15 16 16 17 17 17 18 18 18 18 18 18 18 18
15 14 14 15 15 14 13 11 11 10 9 8 7 6 5 4 5 6 6 6 6 5 5 5 5 4 4 4 5 4 4 3 2 2 3 3 3 4 3 4 3 2 3 2 2 3 4 3 3 3 3 4 5 6 7 8 10 13 13 13 14 14 13 14 15 15 14 15 15 16 16 17 17 18 18 19 19 20 20 20 20 20 20 20 20
17 16 15 15 15 15 14 13 12 11 10 9 8 7 6 5 5 6 7 7 6 6 6 6 5 5 4 3 3 3 2 3 3 2 3 2 2 2 3 4 5 3 2 1 2 3 3 3 3 4 4 5 6 7 9 9 10 13 14 14 15 16 16 16 17 17 17 17 17 17 18 18 19 20 20 21 21 22 22 22 23 23 23 23 23
16 16 16 16 15 15 14 14 13 12 11 10 9 8 8 7 6 7 7 7 7 7 7 6 6 6 5 4 4 3 2 2 3 2 3 2 2 3 2 2 4 4 3 2 2 3 2 3 4 5 4 6 8 9 10 10 11 14 15 15 17 18 18 18 18 19 20 20 20 21 21 21 21 22 22 23 23 24 24 24 25 25 25 25 25
16 16 17 17 16 15 15 15 14 14 13 12 11 10 9 9 8 8 8 7 7 8 8 7 7 7 6 6 5 5 3 3 3 2 2 2 2 2 2 2 2 3 3 3 3 3 3 4 5 7 6 7 8 9 11 12 12 14 16 17 17 19 20 19 19 19 21 22 23 24 25 25 26 26 26 26 26 26 26 27 27 27 27 28 28
16 17 17 17 17 17 16 15 15 15 14 13 12 11 10 10 9 9 8 8 8 8 9 9 8 7 7 7 7 6 5 5 5 4 3 3 2 3 3 4 3 3 2 2 3 4 4 5 5 7 9 8 9 9 11 13 13 14 16 17 17 18 20 20 20 20 20 22 24 25 27 28 29 30 30 30 30 30 30 30 30 30 30 30 30
18 17 17 18 18 18 17 16 15 15 15 14 13 13 12 11 10 10 9 8 8 8 9 9 9 8 8 7 7 7 6 6 6 6 5 5 5 5 5 5 5 5 4 3 4 5 6 7 6 5 6 7 9 11 12 14 15 16 17 18 18 19 19 21 22 23 23 23 23 25 27 28 30 32 33 33 33 34 34 34 34 33 33 33 33
19 18 18 18 18 18 18 17 17 16 16 15 15 14 14 13 12 11 10 9 9 9 9 9 9 9 8 8 8 8 7 7 7 7 6 6 6 6 6 7 7 7 7 6 5 6 7 8 9 9 8 8 10 12 14 15 16 18 19 20 21 21 20 21 23 25 25 25 25 26 27 28 30 31 33 34 35 36 37 37 37 37 37 37 36
20 19 19 19 19 19 18 18 17 17 17 16 16 15 15 14 13 12 12 11 11 10 10 10 9 9 9 9 9 8 8 7 8 8 7 7 8 7 8 8 8 9 9 8 7 8 9 10 12 12 12 13 13 15 16 17 18 19 21 21 22 22 22 23 24 25 25 25 25 26 27 28 29 30 32 34 35 37 38 39 40 40 40 40 40
20 20 20 20 19 19 19 18 18 18 18 17 17 16 16 15 14 13 12 13 13 11 11 11 11 10 10 10 10 10 9 9 9 9 9 9 9 9 9 9 10 9 9 10 10 10 11 11 12 13 13 14 15 16 17 18 19 18 19 20 20 20 21 22 22 22 23 25 25 26 26 27 28 28 29 31 33 35 37 38 40 41 42 42 43
20 20 21 21 20 20 19 19 18 18 18 18 18 17 17 16 16 15 14 14 14 13 12 12 12 11 11 11 12 11 11 11 11 11 10 10 10 10 10 10 10 10 10 11 11 11 12 12 12 14 14 14 16 17 17 19 19 18 18 19 18 18 19 20 20 20 21 24 25 26 27 28 28 28 29 30 31 32 33 35 36 38 39 41 42
21 21 21 21 21 21 20 19 19 19 18 19 18 18 18 17 17 16 15 15 16 15 14 13 13 12 12 12 13 12 12 12 12 12 11 11 11 11 11 11 10 10 10 12 12 13 13 13 13 14 14 14 16 17 18 20 20 19 18 19 18 18 17 18 19 20 21 23 25 27 28 30 30 30 30 30 31 31 32 33 33 34 36 37 39
22 22 21 21 21 22 21 20 20 20 19 19 19 18 18 18 18 18 17 17 17 17 16 15 14 14 13 14 14 13 12 12 12 12 12 12 12 11 12 11 11 11 12 12 14 14 14 15 14 14 15 16 18 19 20 21 20 18 17 18 17 17 18 18 20 21 21 23 25 27 28 29 29 29 29 30 30 31 32 33 34 34 35 36 37
23 23 22 22 22 22 22 21 21 21 21 20 20 19 18 18 18 18 18 18 17 17 17 17 16 15 15 15 15 14 13 13 13 13 12 12 12 12 12 12 11 12 12 13 14 14 15 15 16 16 17 18 20 20 19 18 18 16 16 17 17 18 18 18 19 20 20 21 22 23 23 24 25 26 28 29 30 31 33 34 34 34 35 36 37
24 23 23 23 23 23 22 22 22 22 21 21 21 20 19 19 19 19 18 18 18 18 18 17 17 17 16 16 16 15 15 14 14 13 13 13 13 13 13 13 12 11 12 13 14 14 15 16 17 18 18 18 19 19 16 15 15 16 16 16 16 17 17 18 20 20 19 19 20 21 22 22 24 26 29 30 31 31 32 32 33 33 33 34 35
25 24 24 24 24 24 23 23 23 23 22 22 21 21 21 20 20 19 19 19 19 18 18 18 18 17 17 17 17 17 17 16 15 14 14 14 14 14 14 13 12 12 13 13 14 14 15 16 17 18 18 17 18 18 14 12 14 15 15 15 16 17 17 19 21 21 21 21 20 21 22 22 23 25 28 30 31 33 33 32 32 31 30 31 33
26 25 25 24 24 24 24 24 23 23 23 22 22 22 22 21 20 20 20 20 19 19 18 18 18 18 18 18 18 18 18 18 17 16 15 14 14 14 14 13 12 12 13 13 13 14 14 16 17 17 18 18 18 17 14 12 13 13 12 14 17 19 20 20 20 21 23 23 22 21 20 21 23 24 25 28 30 32 34 34 34 33 31 30 29
25 25 25 24 24 23 24 24 24 23 23 23 23 23 23 22 22 21 21 20 20 19 18 18 18 18 18 18 18 19 19 19 19 18 18 16 15 14 13 12 12 13 13 14 13 13 14 15 17 17 17 18 17 16 13 11 13 14 12 13 17 20 22 22 21 21 22 22 22 22 20 20 23 25 24 26 28 29 31 33 34 33 33 32 29
25 25 25 25 24 24 24 24 24 24 24 23 25 27 26 25 23 22 22 21 21 20 19 18 18 18 18 19 19 19 19 20 21 22 22 21 20 19 16 13 12 12 13 14 15 15 15 15 16 16 17 18 17 15 14 14 15 14 12 13 16 19 22 23 21 19 17 18 20 22 21 20 21 24 25 26 26 27 28 28 29 30 32 33 32
25 25 25 25 25 24 24 24 24 24 24 24 27 30 30 28 25 22 22 22 21 21 20 19 19 19 19 19 19 19 19 20 22 23 25 25 25 25 23 21 19 17 17 16 16 15 15 16 17 16 17 18 17 15 16 16 13 11 13 15 16 19 21 21 20 17 15 16 19 24 26 23 21 23 25 24 25 27 28 28 29 31 32 34 35
25 24 25 25 25 24 24 24 24 24 23 25 28 31 32 31 28 24 21 21 21 20 21 21 20 19 19 19 19 19 19 20 21 22 24 26 26 26 25 24 23 22 23 23 21 19 17 16 17 18 18 18 17 16 16 14 11 12 16 17 16 18 19 20 21 20 20 19 20 24 28 25 21 21 24 23 23 25 27 29 32 34 35 35 35
25 24 25 25 25 24 23 23 24 23 23 24 28 31 32 33 32 27 22 20 21 20 20 21 20 20 19 19 19 19 19 20 21 20 19 20 21 21 20 20 20 21 23 26 28 27 24 20 18 19 18 16 15 15 15 13 13 16 18 17 16 17 18 19 21 23 26 25 22 23 25 23 19 19 21 21 21 23 26 28 31 34 36 36 36
24 24 24 24 25 25 24 23 23 23 23 24 27 30 31 32 33 32 25 19 19 20 19 20 20 20 20 19 19 19 19 20 20 19 18 17 16 16 17 18 19 20 21 23 25 27 28 27 26 25 23 20 17 17 16 15 16 18 19 19 18 18 20 20 20 24 28 26 22 21 23 21 19 19 21 21 22 25 26 27 30 33 35 36 36
24 24 24 24 24 25 25 24 23 22 22 24 26 28 30 30 31 33 29 21 18 18 19 19 19 19 20 20 19 19 19 20 21 20 18 16 15 15 15 16 17 19 20 21 23 22 23 25 26 27 27 25 21 18 17 17 19 20 20 20 21 21 21 20 18 20 22 20 17 18 20 20 19 21 23 23 25 26 26 27 30 32 32 31 31
24 23 23 24 24 24 25 25 24 23 23 24 25 26 28 28 28 30 30 24 20 19 19 19 20 20 19 20 20 20 20 21 23 23 22 19 15 14 15 16 16 17 18 20 22 22 21 21 22 23 24 25 23 20 19 20 23 23 20 19 20 19 18 16 14 13 12 14 15 16 17 19 20 22 26 26 25 27 28 27 27 26 26 25 26
24 23 23 23 23 24 24 25 25 25 24 25 27 27 27 27 27 29 28 24 21 21 20 20 20 20 21 21 21 21 21 22 24 25 25 23 20 16 16 16 16 17 18 19 20 21 22 21 21 21 24 26 24 22 21 23 25 23 19 17 17 16 14 14 13 12 13 14 14 14 15 19 20 22 26 27 26 26 25 24 22 21 23 24 25
24 24 23 23 23 24 25 26 26 25 25 27 29 30 30 29 29 30 28 23 21 21 21 21 21 21 22 24 24 23 22 22 24 25 25 25 22 19 18 17 17 18 18 17 17 18 19 19 20 22 25 24 22 20 21 21 19 16 15 15 14 13 12 13 14 16 17 13 12 14 17 20 21 22 24 26 25 23 20 20 21 23 24 25 26
24 24 23 23 23 24 24 25 27 26 25 27 29 31 32 32 32 31 27 23 21 21 20 20 21 21 22 24 27 28 27 24 24 24 25 26 24 20 18 17 18 18 17 16 16 16 15 15 18 20 19 16 16 18 20 17 12 9 10 12 12 11 11 13 15 16 15 11 13 19 20 20 22 23 22 21 18 18 19 20 22 24 25 26 26
Wind_Direction
147 148 136 131 110 103 108 106 85 85 112 111 98 98 90 90 96 127 203 185 136 130 134 143 127 116 114 109 107 98 99 104 111 121 125 131 133 131 131 133 139 141 143 143 142 140 138 134 126 127 126 121 119 113 110 107 107 106 106 106 108 112 111 108 106 89 63 43 16 345 344 344 353 359 358 356 356 355 355 354 352 351 352 352 355
144 138 131 119 92 94 111 115 97 82 91 87 86 98 94 101 86 96 216 190 141 140 142 139 125 117 116 111 110 105 106 108 113 126 131 133 134 133 131 134 141 146 149 150 150 151 151 149 143 144 144 137 137 137 137 137 139 138 133 134 134 138 144 143 139 129 277 305 300 311 321 327 337 340 340 345 347 348 349 348 346 346 347 348 352
139 141 124 110 93 93 106 116 110 85 79 82 88 102 89 102 101 185 197 150 133 137 146 154 136 118 117 105 98 101 107 110 112 121 126 130 135 136 135 138 144 148 151 153 155 158 160 162 160 161 161 158 165 169 169 174 177 181 182 176 178 183 193 206 203 222 245 258 271 284 297 308 316 323 328 334 338 340 342 343 342 341 343 346 350
121 109 97 103 98 89 92 104 111 93 87 95 85 92 91 109 134 218 159 101 124 131 131 142 127 108 105 100 99 96 100 107 110 111 115 128 141 145 142 142 148 154 154 153 156 158 161 164 167 171 172 174 180 185 186 193 199 203 209 209 210 214 222 229 237 247 255 259 263 277 292 298 302 313 319 324 329 331 334 337 337 337 339 343 347
111 48 77 96 91 76 89 91 91 91 91 104 88 60 59 110 112 84 94 102 115 127 120 116 111 105 95 98 109 104 99 105 109 116 120 129 142 151 157 155 150 154 157 154 155 157 161 161 164 173 174 177 184 190 193 201 207 211 215 220 224 229 234 240 248 255 260 267 270 276 287 292 297 304 309 314 319 322 326 330 332 334 336 341 344
114 83 60 94 99 82 100 95 86 90 68 78 89 70 51 58 72 70 82 98 98 107 111 106 104 108 107 100 106 106 106 108 109 117 121 124 136 147 157 164 157 154 157 155 155 159 166 165 166 174 173 174 184 191 194 202 210 215 219 223 229 234 238 245 252 257 263 268 270 272 279 286 292 300 305 310 315 318 321 325 332 334 334 338 338
121 99 41 94 115 100 102 102 92 90 67 93 106 81 58 50 58 71 77 90 95 91 96 100 99 103 105 101 104 108 107 107 114 118 119 125 133 137 145 159 160 159 164 163 159 162 174 182 180 181 180 180 186 190 194 201 211 216 219 224 232 236 240 249 255 258 264 269 275 279 283 289 294 302 306 309 313 317 320 325 331 331 328 330 329
133 125 101 83 96 95 104 103 85 79 70 97 103 81 60 55 47 64 79 90 100 96 97 103 103 101 100 106 112 111 108 114 122 119 120 127 129 133 138 144 150 158 167 168 168 166 170 192 199 198 194 194 191 191 196 202 208 215 220 226 232 237 243 252 257 258 263 270 280 288 291 294 297 302 304 307 311 314 318 323 324 324 324 325 329
147 139 159 115 63 81 101 98 77 84 71 83 93 67 53 65 58 67 70 68 96 101 105 107 107 107 103 101 106 109 114 118 118 115 117 125 132 137 140 141 146 155 161 164 173 178 137 149 191 208 208 210 204 197 200 205 209 215 221 224 229 237 245 256 262 266 272 276 282 287 289 292 293 295 297 301 307 310 313 315 316 321 322 324 330
161 155 169 149 95 90 97 101 79 71 73 80 79 50 38 52 64 70 53 52 82 90 88 94 102 108 106 97 95 108 114 114 118 121 125 133 140 134 134 143 149 152 151 155 165 174 162 119 131 184 201 213 214 208 209 213 215 220 223 223 228 239 249 260 269 277 280 281 286 289 290 291 289 291 294 296 300 303 305 307 310 317 316 318 327
175 170 179 159 141 117 107 133 140 103 87 94 79 57 43 41 56 59 63 73 80 81 82 89 97 96 100 98 91 98 106 118 128 130 136 137 137 139 138 142 145 145 148 157 156 161 176 168 149 176 188 217 225 220 223 225 221 225 228 226 231 237 245 253 261 273 277 277 284 288 291 289 287 287 289 292 294 295 297 301 305 308 306 311 320
190 185 188 183 161 146 148 160 155 121 72 80 73 67 64 48 53 52 66 90 97 98 95 89 94 90 97 104 97 100 103 111 128 127 132 127 128 141 139 136 140 145 151 163 164 160 168 171 168 180 195 253 295 243 237 233 226 230 233 233 234 235 242 248 253 264 270 273 273 275 282 284 283 283 284 287 289 292 295 297 297 295 298 302 305
200 197 196 203 187 165 164 168 156 127 103 91 71 70 92 82 82 77 65 83 100 103 97 90 114 122 128 125 105 99 102 108 121 119 127 133 132 129 134 142 139 147 152 144 173 179 165 165 169 167 181 248 309 306 288 256 237 236 236 243 244 239 242 245 250 258 263 265 262 266 275 277 277 280 283 286 286 287 289 288 285 282 283 280 274
202 206 209 212 202 189 181 181 176 142 133 136 106 93 110 91 86 85 73 81 79 84 97 107 153 122 104 128 117 101 88 98 116 124 135 138 138 132 131 141 122 120 140 134 168 185 161 145 138 130 153 196 237 266 305 295 263 257 254 259 260 255 251 246 248 255 258 258 257 264 272 273 276 276 278 279 277 277 274 272 271 268 263 255 253
203 206 212 215 206 201 196 191 192 172 157 150 125 112 113 91 82 82 80 97 95 100 105 39 77 103 103 143 130 116 99 120 138 138 130 123 140 136 121 125 112 102 149 144 146 148 125 124 109 89 148 176 204 232 265 248 254 271 273 267 262 262 260 253 251 248 251 254 253 260 266 271 273 273 272 270 268 265 258 259 260 256 249 246 247
206 208 209 212 207 203 203 199 197 188 176 157 136 130 131 110 93 92 91 97 105 112 109 72 61 96 127 167 129 131 132 140 137 141 145 140 147 132 122 144 127 134 203 134 105 110 138 162 148 149 215 246 230 229 228 228 253 273 269 258 255 256 256 254 255 251 250 251 252 257 263 269 270 269 266 260 257 255 253 256 256 251 247 247 247
208 211 210 210 208 207 208 206 202 196 193 188 171 153 139 118 101 105 109 99 100 107 112 110 85 68 67 60 127 100 61 84 96 44 308 146 140 123 125 163 138 155 225 138 121 207 220 174 166 192 207 219 238 234 229 232 254 270 258 256 253 247 249 251 253 256 256 253 254 260 265 271 270 265 261 254 252 251 253 256 254 252 249 248 246
207 211 211 210 210 207 209 214 211 204 209 204 181 181 165 128 105 106 104 94 94 107 117 112 101 101 109 116 103 55 49 38 67 49 351 13 130 145 149 166 151 165 200 200 198 206 208 177 176 200 197 203 224 227 231 225 225 226 234 248 255 254 256 255 252 255 258 257 257 259 263 271 274 269 262 257 255 252 254 254 251 251 249 248 246
207 210 210 211 212 210 207 213 219 212 216 219 210 216 181 140 117 93 88 93 101 117 127 114 113 154 150 124 110 43 50 63 56 87 89 10 340 172 159 169 190 188 184 200 204 181 173 187 212 201 190 203 220 226 229 220 221 228 237 247 257 265 264 260 259 259 260 263 264 262 262 268 274 271 261 255 252 251 251 250 249 250 250 249 247
207 209 209 210 211 213 210 210 220 218 212 215 226 237 164 133 147 119 89 115 141 151 129 126 139 149 125 112 120 88 85 114 75 57 25 2 276 176 141 133 181 170 156 169 148 121 161 187 259 219 195 208 215 224 227 217 221 234 247 256 258 262 264 263 264 264 264 266 268 268 266 265 268 265 256 251 250 251 252 251 251 250 250 250 249
206 208 208 210 211 213 213 212 217 216 215 218 216 220 192 169 184 188 192 181 177 177 152 155 174 135 128 144 124 121 185 148 124 141 314 339 338 94 106 115 110 90 38 76 92 332 204 181 222 232 215 213 213 224 228 223 222 226 241 259 266 261 262 265 264 263 265 265 265 267 266 263 262 260 256 252 251 252 253 254 253 252 252 252 251
204 208 208 209 211 213 214 215 217 215 215 220 211 205 203 199 205 210 212 213 207 194 174 172 183 140 144 161 160 150 167 158 164 166 108 342 316 1 67 41 103 111 66 29 57 326 289 219 233 231 216 210 214 222 225 228 230 228 240 258 274 271 264 263 263 263 262 262 263 262 263 263 260 259 258 256 255 255 256 257 256 255 254 253 252
203 206 207 208 210 212 214 216 217 217 213 214 213 206 206 204 205 212 215 219 222 214 198 184 178 182 178 168 183 193 173 184 192 146 147 240 286 303 330 31 42 90 83 31 326 283 272 258 252 241 227 228 231 229 230 234 235 237 248 262 272 269 267 265 262 263 263 262 262 261 261 261 261 261 260 260 259 259 259 259 258 257 256 255 254
206 206 206 207 209 210 213 215 215 216 211 209 211 210 210 204 199 207 215 219 223 221 215 206 188 191 198 181 193 207 184 198 205 167 182 186 332 292 315 27 1 30 63 22 295 277 263 253 243 231 226 233 238 238 240 240 242 251 262 273 275 269 268 268 265 264 263 263 263 263 263 262 263 263 262 262 261 261 261 261 260 259 258 256 255
205 207 206 205 205 207 209 210 212 214 211 208 207 209 215 209 201 207 215 218 222 225 222 220 207 204 214 199 202 210 187 197 225 203 193 170 202 262 327 2 321 355 40 357 319 296 252 228 233 234 226 235 241 243 246 244 247 258 267 272 275 276 270 267 266 264 261 262 263 264 265 265 265 265 264 264 263 263 262 262 262 261 260 258 257
202 204 205 204 203 204 205 206 208 209 207 207 206 206 211 213 213 215 219 220 223 228 231 231 224 218 223 228 233 233 206 198 202 216 240 226 229 286 1 339 307 324 350 250 273 285 245 191 202 209 212 238 241 238 243 245 248 258 265 265 268 273 271 265 262 261 260 261 261 263 264 265 266 266 265 265 265 264 264 263 263 262 261 260 258
201 201 200 202 201 201 202 204 204 205 204 204 205 207 209 211 216 220 223 223 223 230 236 236 233 228 220 225 245 250 240 240 226 225 269 297 324 347 1 318 307 317 321 301 267 258 227 212 210 192 201 231 235 235 237 240 245 253 259 261 261 265 268 268 264 261 261 262 262 263 263 263 264 264 265 265 265 265 265 264 264 262 261 261 259
200 199 196 197 199 198 201 202 201 203 204 203 204 207 209 212 214 218 223 224 225 230 236 238 236 234 227 221 233 246 242 250 263 264 278 307 329 330 298 272 288 300 314 324 302 264 231 246 223 194 206 227 230 236 239 241 247 251 255 259 260 261 264 269 270 268 266 265 265 266 265 265 264 264 263 264 264 264 264 264 264 263 262 261 260
199 198 195 195 196 197 199 201 201 204 205 204 206 206 209 214 215 217 220 224 226 228 234 240 239 237 234 223 223 238 242 240 254 257 247 255 265 257 252 251 251 269 287 294 295 297 297 292 256 200 204 226 239 246 247 246 249 251 253 255 258 259 262 267 272 275 274 271 269 267 267 267 266 266 265 264 264 263 263 263 263 263 262 261 260
200 197 195 195 196 197 197 199 201 204 205 205 206 206 208 213 216 218 220 221 224 227 231 237 240 240 239 233 226 230 234 233 240 242 230 225 236 238 241 241 230 236 259 269 278 283 283 290 286 239 217 234 252 256 254 252 253 255 256 256 257 261 264 266 269 274 276 275 272 269 267 266 265 266 266 265 265 264 263 263 262 262 262 261 260
199 196 195 195 196 196 197 199 201 202 203 203 203 204 207 211 216 219 219 218 220 224 227 232 237 239 238 238 236 234 236 238 243 245 231 219 228 235 233 235 232 232 244 256 264 273 275 283 289 285 273 268 267 264 262 259 260 263 265 264 265 270 272 272 272 274 275 276 275 273 271 269 267 266 266 267 267 266 266 265 264 263 263 262 261
197 195 196 196 195 197 198 200 203 202 200 200 200 201 204 209 215 219 218 215 217 221 227 229 232 234 235 237 237 236 236 239 245 249 241 226 226 234 236 235 235 232 236 246 255 265 272 277 281 283 282 279 274 270 267 266 265 266 268 269 272 277 278 277 277 278 281 281 281 280 277 275 273 271 270 269 269 269 268 267 267 266 265 264 263
197 196 197 197 196 198 200 202 204 203 200 199 199 199 202 206 211 218 217 213 214 219 224 228 231 233 233 235 236 236 235 238 242 245 245 236 227 232 240 240 239 238 234 240 256 269 273 275 276 277 279 278 276 272 270 270 269 269 271 273 276 276 275 274 273 274 278 281 284 285 284 283 281 279 277 275 273 272 271 270 270 269 268 267 266
197 197 197 198 198 199 201 202 203 203 200 199 200 199 201 204 207 213 216 213 212 217 220 225 230 232 233 234 235 235 234 236 240 243 246 243 236 234 237 238 242 244 239 240 253 267 275 276 276 277 276 274 273 272 270 269 270 272 271 271 272 272 271 271 272 273 274 276 280 283 285 285 285 285 284 282 279 277 274 273 272 271 270 269 268
197 198 198 199 199 199 201 201 200 201 199 199 201 201 202 204 207 211 213 212 212 215 220 223 226 230 232 234 235 234 233 233 235 240 245 246 246 246 244 244 247 249 249 247 249 259 271 277 278 278 278 276 274 273 272 271 275 279 278 276 276 276 275 277 279 279 279 279 280 281 282 284 286 288 289 288 286 284 281 278 275 272 270 268 267
197 197 198 199 198 198 201 201 198 199 199 199 201 204 204 204 207 211 212 212 213 215 219 223 225 228 230 233 235 234 233 233 232 236 240 243 245 247 248 248 250 253 255 253 251 254 264 272 274 274 276 277 274 272 274 278 282 285 284 286 288 287 287 290 289 286 285 285 284 282 282 283 287 290 292 292 291 290 287 284 281 277 273 270 267
199 196 197 198 197 196 199 199 198 198 199 200 201 204 206 206 208 211 212 213 215 216 218 221 224 227 230 233 234 234 233 232 232 234 237 240 242 244 245 245 246 250 252 252 253 254 258 267 273 274 273 272 272 274 277 282 286 290 293 296 296 294 294 295 294 291 291 293 293 293 293 294 294 294 292 291 290 291 291 290 287 284 280 276 272
200 197 196 197 197 196 197 198 198 198 199 200 202 205 207 208 208 211 214 215 216 217 218 220 222 226 231 233 234 235 234 233 232 234 236 239 241 242 244 245 246 246 249 251 252 254 258 265 270 272 272 271 274 277 277 280 288 295 299 298 296 294 294 297 298 296 295 296 296 297 297 297 296 293 292 291 290 290 291 291 290 289 287 283 279
200 199 197 196 197 196 196 197 198 198 199 200 202 204 207 209 208 211 214 215 217 219 220 221 223 226 229 232 234 234 234 233 233 234 235 236 240 244 245 246 246 245 248 252 254 256 260 265 267 270 274 275 277 279 282 287 290 289 290 293 297 298 297 298 296 294 297 298 295 292 292 294 297 297 297 297 295 293 291 290 288 286 287 287 284
200 201 200 197 196 196 196 197 198 198 199 199 201 202 205 208 209 210 213 215 217 219 221 223 225 228 231 233 235 234 234 233 231 231 234 235 239 244 245 245 244 244 247 252 257 259 261 265 268 272 277 278 278 280 285 288 286 286 289 294 300 302 301 300 295 293 297 299 298 297 296 300 304 303 300 298 297 296 294 292 288 284 281 282 283
199 201 203 200 197 196 197 197 198 199 199 200 201 201 202 205 208 210 212 213 216 218 220 224 225 228 232 235 238 237 236 235 232 229 230 231 233 240 243 243 242 242 245 249 254 257 259 263 267 272 275 276 277 279 282 284 289 297 302 299 299 302 303 303 300 298 298 297 299 299 297 299 303 301 297 294 294 295 294 293 292 289 286 282 281
199 200 203 203 201 198 197 197 198 199 201 202 202 203 203 203 205 209 211 212 215 217 219 223 225 227 231 236 241 242 240 240 238 235 234 233 234 238 239 238 238 241 246 249 250 251 254 259 264 270 273 275 280 283 285 290 296 304 312 309 305 306 306 305 303 303 302 301 303 300 296 295 296 295 293 290 291 294 294 291 291 291 290 290 288
199 199 200 203 205 202 200 199 199 201 204 204 204 206 207 206 204 207 211 211 213 216 217 220 223 227 231 235 240 243 243 242 241 241 242 242 244 247 247 245 242 240 242 248 251 252 253 257 262 267 271 276 284 290 293 300 308 313 312 309 305 304 305 304 305 306 306 308 308 301 294 293 291 288 287 286 288 293 295 295 296 293 290 289 290
197 198 199 202 205 205 204 203 203 204 206 206 207 209 211 211 207 206 210 212 212 214 216 218 221 225 229 233 238 241 242 241 240 240 242 246 249 252 253 254 251 245 240 241 246 249 252 259 264 265 268 275 285 292 299 309 318 313 305 301 300 300 299 300 300 299 299 303 304 295 290 292 292 287 284 284 286 290 294 298 301 300 297 294 291
196 198 200 201 203 206 207 207 207 208 210 209 209 211 213 214 211 207 209 213 214 215 217 218 221 223 225 229 235 239 242 244 242 237 236 242 249 252 254 254 254 251 244 240 242 245 248 255 263 265 267 274 282 289 298 308 312 307 301 298 298 297 295 295 294 292 296 298 294 288 288 292 296 292 290 292 294 294 295 297 299 302 303 303 301
196 199 200 201 202 204 207 209 209 211 213 212 211 212 215 217 215 210 210 214 218 219 220 220 221 223 223 225 230 235 239 242 242 236 230 232 239 247 250 250 251 253 251 247 246 245 245 248 253 258 264 268 274 281 289 297 300 300 298 300 303 300 294 291 287 288 295 297 287 282 288 295 301 301 298 302 304 301 299 298 298 300 301 303 304
198 199 200 201 202 203 205 208 210 212 216 216 213 214 216 219 218 215 215 219 224 224 223 223 223 224 223 224 227 232 235 237 239 238 234 229 229 234 239 242 246 248 249 251 252 251 249 248 249 256 264 267 268 272 279 288 292 293 295 298 300 297 291 287 282 283 292 298 289 281 287 298 308 308 305 308 308 304 303 301 298 299 301 304 307
201 200 201 203 203 203 204 207 210 213 217 218 217 216 217 218 218 216 217 221 227 228 228 226 225 225 224 224 226 230 232 236 239 240 239 235 231 231 236 240 243 245 247 251 254 255 256 256 258 264 268 267 266 268 275 283 287 290 295 296 295 293 289 289 289 287 295 305 300 293 294 303 313 312 308 310 310 306 305 305 303 305 309 313 315
203 202 203 205 205 205 205 206 209 213 217 220 220 218 217 216 214 213 214 217 223 227 229 229 227 226 226 225 226 228 230 234 239 242 243 240 236 236 240 244 247 250 251 253 256 257 257 259 264 268 268 267 269 274 279 284 287 289 289 287 288 293 295 298 302 307 310 309 308 313 312 310 315 315 310 311 312 309 309 311 313 317 319 320 320
206 207 207 208 209 209 208 208 209 211 216 220 220 218 217 215 213 211 210 212 218 223 226 228 227 227 228 227 226 227 229 234 238 242 244 242 238 237 241 243 245 249 251 252 256 260 259 257 260 263 265 267 271 276 281 284 286 283 275 274 283 293 299 302 305 311 313 312 323 335 328 317 318 321 318 315 314 314 316 318 321 324 325 324 323
208 211 211 212 213 213 213 213 211 211 216 220 219 217 216 216 214 210 207 209 215 218 221 225 225 226 228 229 228 228 229 232 236 239 243 243 238 235 238 241 242 245 250 251 253 257 255 249 250 255 262 270 275 280 287 290 286 279 277 284 289 288 294 303 308 312 313 315 334 341 334 324 323 324 325 323 318 317 322 323 324 326 326 326 324
Height
851 851 853 854 856 859 859 856 857 858 857 857 856 857 858 858 859 860 861 858 855 857 858 857 857 858 858 857 858 857 857 859 860 861 862 863 864 864 865 865 866 866 867 868 868 869 869 870 870 870 871 871 871 872 872 872 872 872 873 873 873 873 874 874 874 874 874 874 874 874 874 873 873 873 873 872 872 871 870 870 869 868 868 867 866
850 850 852 855 856 858 859 857 858 857 857 857 857 858 858 859 860 861 861 859 857 858 858 857 858 858 858 857 857 857 858 858 860 861 862 863 864 864 865 865 866 866 867 868 868 869 869 870 870 871 871 871 872 872 872 873 873 873 873 874 874 874 874 874 874 874 874 874 874 874 874 873 873 873 872 872 872 871 870 870 869 868 867 867 866
849 850 852 856 857 857 859 859 858 858 858 858 858 859 859 860 860 860 859 858 857 858 858 858 858 858 857 857 857 857 858 859 860 861 862 863 864 864 865 865 866 866 867 867 868 869 869 870 870 871 871 872 872 873 873 873 873 874 874 874 874 874 874 874 874 874 874 874 874 873 873 873 873 872 872 872 872 871 870 870 869 868 867 866 866
850 851 853 857 857 856 858 859 858 859 859 859 859 858 858 858 858 858 857 856 857 858 858 858 858 857 857 857 857 857 858 859 860 861 862 863 864 864 864 865 866 866 867 867 868 869 869 870 870 871 871 872 872 873 873 873 873 874 874 874 874 874 874 874 874 874 873 873 873 873 873 873 872 872 872 872 871 871 870 870 869 868 867 866 866
851 852 853 857 857 855 857 858 858 859 859 859 858 858 857 857 856 856 855 856 856 857 857 856 856 856 857 857 857 858 858 859 860 861 862 863 864 864 864 865 866 867 867 868 868 869 869 870 870 870 871 871 872 872 873 873 873 873 874 874 874 874 873 873 873 873 873 873 873 873 873 872 872 872 872 872 871 871 870 869 869 868 867 866 866
852 853 854 856 857 857 858 858 858 859 859 858 857 857 857 856 855 854 854 854 855 855 855 855 856 856 857 857 857 858 858 859 860 861 862 863 863 864 864 865 866 867 868 868 868 868 869 869 870 870 870 871 871 872 872 872 873 873 873 873 873 873 873 873 873 873 872 872 872 872 872 872 872 872 872 872 871 870 870 869 869 868 867 866 866
853 854 854 855 857 857 858 858 859 860 859 858 857 856 856 855 854 854 854 854 854 854 854 855 855 856 857 857 857 858 859 860 860 861 862 863 863 864 865 866 866 867 867 868 868 868 869 869 869 870 870 870 871 871 871 871 872 872 872 872 872 872 872 872 872 872 872 872 872 872 872 872 872 872 871 871 871 870 870 869 869 868 867 866 865
854 855 854 854 855 857 857 858 859 859 859 858 857 856 855 855 855 855 854 854 854 854 855 855 855 856 857 857 858 858 859 860 860 861 862 863 864 864 865 866 866 867 867 867 868 868 868 868 869 869 869 870 870 870 871 871 871 871 872 872 872 872 872 872 872 872 872 872 872 872 872 872 872 871 871 871 870 870 869 869 868 868 867 866 865
854 855 855 854 855 857 857 857 858 859 858 858 857 856 855 855 855 855 855 854 854 854 854 854 855 856 856 857 858 859 860 860 861 862 862 863 864 864 865 865 866 866 867 867 867 868 868 868 868 869 869 869 869 870 870 870 871 871 871 871 871 872 872 872 872 872 872 872 872 872 872 871 871 871 870 870 870 869 869 868 868 867 867 866 865
854 855 855 856 856 856 856 857 858 858 857 857 857 856 855 855 855 856 855 855 854 854 854 854 855 855 856 858 859 859 860 860 861 862 862 863 863 864 865 865 866 866 867 867 867 867 867 868 868 868 868 869 869 869 870 870 870 870 870 871 871 871 871 871 871 871 872 871 871 871 871 871 870 870 869 869 869 868 868 867 867 867 866 865 865
853 855 855 857 857 856 856 857 857 857 856 857 856 855 855 856 856 856 856 856 856 856 856 855 855 856 857 858 859 860 861 861 862 862 862 863 864 864 865 865 866 866 867 867 867 867 867 867 867 868 868 868 869 869 869 869 869 870 870 870 870 871 871 871 871 871 871 871 871 870 870 870 869 869 869 868 868 868 867 867 866 866 866 865 865
853 854 855 857 858 857 857 857 857 856 856 856 856 856 856 857 857 856 857 857 857 857 857 856 856 857 858 859 860 860 861 861 861 862 862 863 863 864 864 865 865 866 866 866 867 867 867 867 868 868 868 868 868 868 869 869 869 869 869 870 870 870 870 870 870 870 870 870 870 869 869 869 868 868 868 868 867 867 866 866 866 865 865 865 864
852 853 854 855 856 857 857 857 857 857 857 857 856 856 857 857 857 856 857 857 857 857 857 858 857 858 858 859 859 860 861 862 862 862 862 863 863 864 864 864 865 865 866 866 867 867 867 867 868 868 868 868 868 868 868 868 868 869 869 869 869 869 869 869 869 869 869 869 868 868 868 868 868 867 867 867 867 866 866 865 865 864 864 864 864
852 853 853 854 855 856 856 856 857 857 857 857 857 857 857 857 856 857 857 857 858 857 858 858 857 857 858 859 859 861 861 861 862 862 861 862 862 863 863 863 864 864 865 866 866 866 866 867 867 867 868 868 868 867 867 868 868 868 868 868 868 868 868 868 868 868 868 868 867 867 867 867 867 866 866 866 865 865 864 864 864 863 863 863 863
851 852 853 854 854 855 855 856 856 855 856 857 857 857 857 856 856 857 858 858 858 858 858 858 857 858 859 860 859 861 863 862 861 861 861 861 861 862 863 862 863 864 865 865 865 865 866 866 867 867 867 868 868 868 867 867 867 867 867 867 867 867 867 867 867 867 867 867 866 866 866 866 865 865 864 864 864 863 863 863 862 862 862 862 863
851 851 852 853 854 854 855 855 855 855 855 856 856 856 857 857 856 857 858 858 857 857 858 859 858 859 860 860 857 860 864 862 860 860 860 860 860 861 862 862 863 864 864 864 864 865 865 866 866 867 867 867 867 867 867 867 867 866 866 866 866 866 866 866 865 865 865 865 865 865 864 864 864 863 863 863 863 862 862 862 862 862 862 862 862
850 851 851 852 853 853 854 855 855 855 855 855 856 856 856 857 857 857 858 858 857 857 858 859 859 860 860 860 860 862 863 858 859 861 859 858 859 860 861 861 862 863 863 863 864 865 865 865 866 866 866 866 866 867 867 866 865 865 865 864 865 864 864 864 864 864 864 864 864 864 863 863 863 863 862 862 862 862 862 861 861 861 861 861 861
849 850 851 851 852 853 854 854 854 855 855 855 856 856 856 856 857 858 858 858 858 858 858 859 860 860 860 860 861 862 861 859 861 864 861 858 858 859 860 860 861 862 863 863 863 863 864 864 865 865 865 866 866 866 866 865 865 864 864 863 863 863 863 863 863 863 863 863 863 863 863 862 862 862 861 861 861 861 861 860 860 860 860 860 860
848 849 850 851 852 852 853 854 854 855 855 855 856 856 856 856 857 858 858 858 859 858 858 859 860 860 860 860 860 860 861 861 862 864 864 862 859 858 859 859 859 860 860 861 861 861 862 863 863 864 864 864 865 864 864 864 864 863 863 862 862 862 862 863 862 862 862 862 862 862 862 862 861 861 860 860 860 859 859 859 859 858 858 858 858
847 848 849 850 851 852 852 853 854 854 855 855 856 856 855 857 858 858 858 858 859 859 858 859 859 859 860 860 860 861 862 861 861 863 864 864 860 857 857 858 857 858 858 859 859 860 861 862 862 862 862 863 863 863 863 863 863 862 861 861 861 861 861 862 862 862 862 861 861 861 861 860 859 859 859 858 858 858 858 858 857 857 857 857 857
847 848 849 850 850 851 852 852 853 854 855 855 855 856 856 857 858 858 859 859 859 859 859 859 859 859 860 861 861 861 861 861 862 862 861 863 862 857 856 857 856 858 858 858 859 859 860 861 861 861 861 862 862 862 862 862 862 861 861 860 860 861 860 860 860 860 860 860 860 859 859 858 858 857 857 857 857 857 857 857 856 856 856 856 856
846 847 848 849 850 851 851 852 853 854 854 855 855 856 857 857 858 858 859 859 859 859 859 860 859 859 860 861 861 861 862 861 861 861 860 862 862 858 856 856 855 857 858 858 859 859 859 859 860 859 860 860 860 861 861 861 861 860 860 859 860 860 859 859 859 859 859 858 858 857 857 856 856 856 855 855 855 855 855 855 855 855 855 855 855
844 845 847 848 849 850 851 852 853 853 854 855 855 856 856 857 858 858 859 859 859 859 859 860 860 860 860 861 861 861 861 861 860 860 860 860 861 859 856 855 855 856 858 859 859 859 859 859 859 859 859 859 860 860 860 860 860 860 859 859 859 859 858 858 858 857 857 856 856 855 855 854 854 854 854 854 854 854 854 853 853 853 853 853 853
843 844 845 847 848 849 850 851 852 853 854 854 855 855 856 857 857 858 859 859 859 859 859 859 859 860 860 860 860 859 859 860 859 859 860 860 861 859 856 856 856 856 857 858 858 858 858 858 858 858 858 859 859 859 859 859 859 859 858 858 857 857 857 856 856 855 854 854 853 853 853 853 852 853 852 852 852 852 852 851 851 851 851 851 851
841 842 843 845 846 848 849 850 851 852 853 854 855 855 856 856 857 858 858 858 858 858 859 859 859 859 859 858 858 858 858 858 858 858 858 858 859 858 857 857 857 856 857 858 858 857 857 857 857 857 857 858 858 858 858 858 858 857 857 856 855 855 855 854 854 853 852 852 851 851 851 851 851 851 850 850 850 850 849 849 849 849 849 849 849
838 840 841 843 845 846 847 849 850 851 852 853 854 855 855 856 857 857 857 858 858 858 858 858 858 858 858 858 858 857 857 857 858 857 857 856 857 857 858 859 857 856 856 857 857 856 855 855 856 856 857 857 857 857 856 856 856 855 855 855 854 853 853 852 851 850 850 850 849 849 849 849 849 848 848 848 847 847 847 847 846 846 846 846 846
836 838 840 841 843 845 846 847 849 850 851 852 853 854 855 855 856 856 857 857 857 858 858 857 858 858 858 858 858 857 857 857 857 857 857 856 857 858 859 860 860 858 856 855 856 855 854 854 854 854 855 855 855 855 854 854 854 853 853 853 852 851 850 849 849 848 848 848 848 847 847 847 846 846 845 845 845 845 844 844 844 843 843 843 843
834 836 837 839 841 843 844 846 847 848 849 851 852 853 854 854 855 855 856 857 857 857 857 857 857 857 857 858 858 858 858 858 857 857 857 857 858 859 859 860 862 862 859 857 855 853 853 852 852 853 853 853 853 853 853 852 852 851 851 850 849 848 847 846 846 846 846 846 845 844 844 844 843 843 842 842 842 841 841 841 840 840 840 840 840
832 834 835 837 839 841 842 844 846 847 848 849 850 851 853 853 854 854 855 855 856 856 856 856 856 857 857 857 858 858 858 858 858 857 858 858 858 859 859 859 860 862 862 862 858 853 852 852 850 851 851 851 851 851 851 850 850 849 849 848 847 846 845 844 844 844 843 843 842 841 841 840 839 839 838 838 838 837 837 837 836 836 836 836 836
829 831 833 835 837 839 840 842 844 845 846 848 849 850 851 852 852 853 854 854 855 855 855 856 856 856 856 856 857 857 857 857 857 857 857 858 858 858 859 858 859 859 860 861 859 855 853 852 850 850 850 850 850 849 849 848 847 847 846 845 845 844 843 842 842 841 840 839 838 838 837 836 835 834 834 834 834 833 833 832 832 832 831 831 831
827 829 831 833 835 836 838 840 841 843 845 846 847 848 849 851 851 852 853 853 854 854 854 855 855 855 855 855 856 856 857 857 856 857 856 857 858 857 857 857 858 858 857 858 858 855 853 852 851 850 850 849 849 848 847 846 845 844 843 843 842 841 841 840 839 838 836 835 835 834 833 832 831 831 830 830 829 829 828 828 827 827 827 827 827
824 826 828 830 832 834 836 837 839 841 842 844 845 846 848 849 850 851 851 852 852 853 853 853 854 854 854 855 855 855 856 856 856 856 855 856 856 856 856 856 856 857 857 857 856 854 852 852 850 849 849 848 847 846 844 843 842 842 841 840 839 839 838 837 835 834 833 832 831 830 829 828 827 827 827 826 825 825 824 823 823 822 822 822 822
822 824 826 828 829 831 833 835 836 838 840 841 843 844 846 847 848 849 850 850 851 851 852 852 852 853 853 853 854 854 855 855 855 855 854 854 855 855 855 854 854 855 855 855 854 852 851 850 849 848 847 846 845 843 842 841 840 839 839 838 837 836 835 833 832 831 830 829 828 827 825 824 824 823 823 822 821 820 819 818 818 817 817 817 817
819 821 823 825 827 829 830 832 834 836 837 839 841 842 843 845 846 847 848 848 849 850 850 851 851 851 852 852 852 853 854 854 854 854 853 853 853 853 853 852 853 853 853 853 852 851 849 848 848 846 845 844 842 841 840 838 837 837 837 836 835 834 833 831 830 829 827 826 825 823 822 821 820 820 819 818 817 815 814 813 813 812 812 812 812
816 818 820 822 824 826 828 830 832 833 835 837 838 840 841 842 843 844 845 846 847 848 848 849 849 850 850 850 850 851 852 852 852 852 852 851 851 850 850 851 851 851 851 851 850 849 848 846 845 844 843 842 840 838 837 836 835 836 836 834 833 833 832 831 829 827 826 824 823 821 820 819 818 817 816 814 813 812 810 809 808 807 807 806 805
812 815 817 819 822 823 825 827 829 831 833 834 836 837 838 840 841 842 843 844 845 845 846 846 847 848 848 848 848 849 850 850 850 850 850 850 849 849 849 849 850 850 849 849 848 848 846 844 843 843 841 840 838 836 835 834 835 835 834 833 832 831 831 829 827 825 824 822 821 819 818 817 816 815 813 812 810 808 806 805 803 803 802 801 799
809 811 814 816 818 820 822 824 826 828 830 832 833 835 836 837 839 840 841 842 842 843 844 844 845 845 846 846 846 847 847 848 848 848 848 848 848 847 848 848 848 848 848 847 846 846 845 843 842 840 839 837 835 834 834 834 833 833 833 832 831 830 829 827 825 823 821 820 818 817 815 814 813 812 810 808 806 804 803 801 799 798 797 796 795
805 808 810 813 815 817 819 821 823 825 827 829 830 832 834 835 836 837 838 839 840 840 841 842 842 843 843 843 844 844 845 845 846 846 846 846 846 846 846 846 847 847 846 845 844 844 843 842 840 838 836 835 833 832 832 833 832 832 831 830 829 828 827 825 823 821 819 818 816 814 813 812 811 808 806 804 801 800 798 797 796 795 793 792 791
802 804 806 809 811 813 816 818 820 822 824 826 828 829 831 832 833 835 836 837 837 838 839 839 840 840 840 841 841 841 842 843 843 844 844 844 844 844 844 844 845 845 844 843 842 842 841 840 837 835 833 832 831 830 831 832 831 830 829 828 826 825 825 823 821 819 817 816 814 812 810 809 807 806 803 800 797 795 793 792 791 790 789 788 786
798 800 802 805 808 810 812 814 816 818 820 822 824 826 828 829 831 832 833 834 834 835 836 836 837 837 838 838 838 838 839 840 841 842 842 842 842 842 842 842 843 843 842 841 840 840 839 837 835 833 832 830 829 829 829 830 829 828 828 826 824 823 822 821 820 817 815 813 812 810 809 807 805 803 800 797 795 792 789 787 786 785 784 783 782
795 797 799 802 804 806 809 811 813 815 817 818 820 822 824 826 827 829 830 831 831 832 833 834 834 835 835 835 835 835 836 836 837 839 839 840 840 840 840 840 840 841 840 840 839 838 837 835 833 832 830 828 827 827 827 828 828 827 826 826 823 821 819 818 817 816 813 810 808 807 807 806 803 800 798 795 792 790 787 784 782 780 779 778 778
791 794 796 798 801 803 805 807 809 811 813 814 815 817 819 821 823 825 826 827 828 829 830 831 832 832 832 832 832 832 833 833 834 835 836 837 837 837 838 838 838 838 838 837 836 835 835 833 831 830 828 826 825 825 824 825 826 825 825 825 823 820 818 814 814 814 812 809 806 803 803 803 800 797 794 792 789 787 784 781 779 777 775 775 774
788 790 793 795 797 799 802 804 806 807 808 810 811 813 815 817 820 822 823 824 825 826 827 828 828 829 830 830 830 830 830 830 831 832 832 833 834 834 835 835 835 835 835 834 834 833 832 831 829 828 826 824 823 823 823 823 824 824 825 824 823 820 818 814 811 810 810 809 806 801 798 798 798 794 791 789 787 784 782 779 777 776 774 773 772
785 787 789 792 794 796 798 800 802 804 805 806 807 809 812 814 816 818 820 821 822 823 824 824 825 826 827 827 827 827 827 827 828 829 829 830 830 831 831 832 832 831 831 831 831 830 830 829 827 826 824 823 823 822 822 822 822 823 823 823 822 820 818 814 810 808 807 807 805 800 795 794 794 792 788 787 785 782 780 777 775 773 772 771 769
782 784 786 789 791 793 795 797 798 800 802 803 804 806 808 810 813 815 817 818 819 819 820 821 822 823 824 824 824 824 824 824 825 825 826 827 827 828 828 828 828 827 827 827 827 827 828 827 826 823 822 823 823 822 822 821 820 820 820 819 819 818 816 814 811 807 805 804 803 798 792 791 791 789 786 785 783 781 778 776 774 771 769 768 767
779 781 783 785 788 790 792 793 795 797 798 799 801 803 805 807 810 812 814 815 816 816 817 818 819 820 821 821 821 821 822 822 822 822 823 824 824 825 825 825 825 824 823 823 823 823 824 824 823 821 821 822 822 821 821 820 819 818 817 816 816 815 814 812 810 806 802 801 800 796 791 789 789 787 784 783 781 778 776 774 772 770 767 766 764
776 778 780 783 784 786 788 790 792 794 795 796 798 800 802 804 807 810 812 813 813 814 815 815 816 817 817 818 818 819 819 818 818 819 820 821 822 823 823 822 822 821 820 820 819 819 820 820 820 819 818 819 819 819 819 819 817 816 815 814 813 812 810 809 808 805 801 799 798 796 790 788 788 785 782 781 779 776 774 772 769 767 766 764 762
773 776 778 779 781 783 785 787 789 790 792 793 795 797 799 802 805 807 809 810 811 811 812 812 813 814 814 815 815 816 816 815 815 815 817 818 820 820 821 820 820 819 818 817 816 816 817 817 817 817 816 816 816 817 817 817 816 815 814 813 811 810 808 806 804 803 801 799 797 795 790 787 787 784 780 778 777 774 771 769 767 765 764 762 760
770 772 774 776 778 780 781 783 785 787 789 790 791 793 795 798 801 804 806 807 808 808 809 809 810 811 811 812 812 813 813 812 812 812 814 815 816 817 818 818 818 817 815 815 814 813 814 815 815 814 813 813 814 814 815 815 814 813 813 811 810 808 806 804 801 800 800 798 796 794 791 788 787 784 779 776 775 772 769 767 765 764 763 761 759
766 768 771 773 775 776 778 779 781 783 785 786 787 789 792 794 797 800 802 804 805 805 806 806 807 807 807 808 809 809 809 809 809 810 811 812 813 814 815 815 815 814 813 813 813 812 812 812 813 812 811 811 812 812 813 812 811 811 810 809 808 808 806 804 801 799 798 797 795 793 790 787 785 783 779 774 771 770 769 767 765 764 762 760 758
763 765 767 769 771 772 774 775 777 779 781 782 783 785 787 790 793 796 798 800 801 801 802 802 803 803 804 804 804 805 806 806 807 807 808 809 810 811 812 812 812 811 811 811 811 811 811 811 811 811 811 811 811 810 810 810 809 809 808 807 807 807 806 804 802 799 796 795 794 792 789 787 784 782 780 775 770 767 767 767 765 763 761 759 756